AO-07 1 07530U 74089B 15148.92547000 -.00000026 00000-0 11020-3 0 9995 2 07530 101.5187 125.0034 0011901 343.2351 072.5056 12.53614536854848 FO-29 1 24278U 96046B 15148.56699382 .00000017 00000-0 50458-4 0 9999 2 24278 098.5386 120.0159 0351290 121.5857 354.4115 13.53052150927377 SO-33 1 25509U 98061B 15147.97521917 .00000280 00000-0 40505-4 0 9992 2 25509 031.4354 006.1279 0348112 256.1940 099.9719 14.30003637866522 RS-22 1 27939U 03042A 15148.96724243 .00000280 00000-0 59326-4 0 9994 2 27939 097.8414 311.7183 0014360 088.7956 271.4888 14.66040392623370 HO-68 1 36122U 09072B 15148.63389319 -.00000060 00000-0 -43517-4 0 9995 2 36122 100.1954 194.1359 0007722 159.3577 200.7852 13.16327126261884 AO-73 1 39444U 13066AE 15148.96376862 .00001173 00000-0 15669-3 0 9998 2 39444 097.7320 212.4264 0059657 197.0264 162.8948 14.80173928 80577 EO-79 1 40025U 14033R 15147.62691749 .00001273 00000-0 14796-3 0 9997 2 40025 097.9537 047.8620 0011539 251.9615 108.0306 14.87096373 50740 UO-11 1 14781U 84021B 15148.12146606 .00000406 00000-0 57200-4 0 9999 2 14781 097.8033 205.6961 0009766 130.8005 229.4057 14.82386558679053 AO-16 1 20439U 90005D 15147.80794545 .00000060 00000-0 38018-4 0 9992 2 20439 098.5396 084.3031 0010020 216.1651 169.7309 14.32542579323829 LO-19 1 20442U 90005G 15147.39230864 .00000056 00000-0 36474-4 0 9998 2 20442 098.5106 083.5136 0011167 204.9515 155.1130 14.32735270323964 AO-27 1 22825U 93061C 15148.95847317 .00000061 00000-0 41001-4 0 9998 2 22825 098.7072 099.0638 0008686 013.0865 030.8150 14.29880673130199 IO-26 1 22826U 93061D 15148.52107886 .00000049 00000-0 36276-4 0 9996 2 22826 098.7014 098.7962 0009074 006.0354 354.0936 14.30197273130270 GO-32 1 25397U 98043D 15147.86142205 .00000025 00000-0 29583-4 0 9994 2 25397 098.5181 098.9422 0002154 056.1507 001.3296 14.23545827876902 NO-44 1 26931U 01043C 15148.85203619 .00000038 00000-0 46506-4 0 9998 2 26931 067.0514 226.9683 0005914 266.6142 093.4282 14.30314182713037 SO-50 1 27607U 02058C 15148.64255362 .00000291 00000-0 62252-4 0 9992 2 27607 064.5556 258.4754 0080560 292.0879 067.1683 14.74724450668409 CO-55 1 27844U 03031E 15148.57187716 .00000170 00000-0 96865-4 0 9999 2 27844 098.6952 157.3785 0009721 005.5375 111.8551 14.21799365617650 CO-57 1 27848U 03031J 15148.51769500 .00000148 00000-0 87858-4 0 9991 2 27848 098.7050 157.2221 0009811 012.8929 111.6317 14.21446495617554 AO-51 1 28375U 04025K 15147.83620358 .00000140 00000-0 54253-4 0 9997 2 28375 098.2912 088.8656 0083532 031.8383 328.7818 14.41658885573558 CP3 1 31129U 07012N 15148.48484421 .00000715 00000-0 16340-3 0 9990 2 31129 097.9789 115.1022 0097185 016.0974 097.5620 14.55794884430254 CO-65 1 32785U 08021C 15148.53791891 .00000930 00000-0 10993-3 0 9995 2 32785 097.6508 192.8234 0014784 127.9491 338.8088 14.86830256383317 PRISM 1 33493U 09002B 15148.99596094 .00002270 00000-0 22284-3 0 9995 2 33493 098.2510 345.4675 0017239 036.4597 323.7737 14.93180012343718 SOHLA-1 1 33496U 09002E 15148.44731174 .00000219 00000-0 43644-4 0 9993 2 33496 098.2090 276.1645 0005520 216.9672 183.0994 14.71353162340274 TISAT-1 1 36799U 10035E 15148.52112846 .00001467 00000-0 16426-3 0 9991 2 36799 098.0151 248.6697 0011660 271.0352 181.8125 14.88430766264034 STUDSAT 1 36801U 10035G 15148.34500212 .00012137 00000-0 71819-3 0 9996 2 36801 098.0593 266.6952 0006857 200.5579 222.6262 15.11584960264974 ALMASAT-1 1 38078U 12006B 15148.10869503 .00016489 34285-5 28280-3 0 9994 2 38078 069.4582 291.0233 0485811 285.1380 069.6534 14.77946371172075 CUBEBUG-1 1 39153U 13018D 15148.73822397 .00000759 00000-0 10921-3 0 9991 2 39153 098.0174 233.1583 0016262 319.4175 040.5823 14.79194492112606 ESTCUBE-1 1 39161U 13021C 15148.95309034 .00000705 00000-0 12255-3 0 9999 2 39161 098.0703 232.0494 0010343 024.3904 335.7752 14.71140314110411 DUCHIFAT-1 1 40021U 14033M 15148.80763933 .00001868 00000-0 20370-3 0 9994 2 40021 097.9561 049.3515 0012005 246.7150 113.3304 14.87953650 50925 NANOSATCBR1 1 40024U 14033Q 15147.64887186 .00001865 00000-0 21151-3 0 9990 2 40024 097.9543 047.9919 0011482 252.6548 107.3310 14.87549332 50743 DTUSAT-2 1 40030U 14033W 15147.64699119 .00001598 00000-0 18582-3 0 9991 2 40030 097.9509 047.6361 0010842 244.3955 115.6029 14.86720329 50733 ANTELSAT 1 40034U 14033AA 15148.94988886 .00000750 00000-0 12235-3 0 9999 2 40034 097.9455 041.4189 0059652 180.3123 179.8040 14.72676008 50469 MET-2/21 1 22782U 93055A 15148.40748611 .00000057 00000-0 37909-4 0 9997 2 22782 082.5501 259.3600 0022663 020.1363 022.0049 13.83771082 97860 OKEAN-4 1 23317U 94066A 15148.59554189 .00000813 00000-0 88521-4 0 9996 2 23317 082.5377 103.8326 0021292 038.6635 143.9683 14.86652639114404 NOAA-14 1 23455U 94089A 15148.45598560 -.00000008 00000-0 18770-4 0 9996 2 23455 098.7523 230.3137 0010329 132.5141 292.6489 14.14041641 52740 NOAA-15 1 25338U 98030A 15148.78581454 .00000171 00000-0 72302-4 0 9999 2 25338 098.7721 147.4102 0009727 220.4008 139.6935 14.25623673886071 RESURS 1 25394U 98043A 15148.96016513 -.00000037 00000-0 20662-5 0 9999 2 25394 098.4635 104.7376 0001411 024.7945 014.4366 14.24458099877547 FENGYUN1 1 25730U 99025A 15148.14316124 .00000550 00000-0 31629-3 0 9997 2 25730 098.9429 113.0121 0017165 199.5927 223.5862 14.13350632826227 OKEAN-0 1 25860U 99039A 15148.53370812 .00000345 00000-0 57605-4 0 9998 2 25860 098.0924 116.5509 0001806 074.4891 040.3472 14.76034254853080 NOAA-16 1 26536U 00055A 15148.76487617 .00000100 00000-0 53661-4 0 9993 2 26536 098.9435 214.7626 0009504 289.8845 070.1778 14.13095923756917 NOAA-17 1 27453U 02032A 15148.76815813 .00000131 00000-0 55898-4 0 9990 2 27453 098.3382 135.7282 0010509 238.0849 121.9796 14.24884145672060 NOAA-18 1 28654U 05018A 15148.72027760 .00000298 00000-0 16239-3 0 9992 2 28654 099.1823 140.8903 0014722 019.2768 340.9438 14.12201241516442 NOAA-19 1 33591U 09005A 15148.82049944 .00000312 00000-0 17072-3 0 9990 2 33591 098.9872 098.6540 0013061 222.7754 137.2876 14.11938522324760 HUBBLE 1 20580U 90037B 15147.79498103 .00001441 00000-0 81384-4 0 9991 2 20580 028.4705 288.5976 0003100 023.6736 125.0917 15.07410988176731 ISS 1 25544U 98067A 15149.00502264 .00005267 00000-0 83446-4 0 9998 2 25544 051.6447 179.8057 0003946 356.2521 085.2753 15.55220013945059 CO-58 1 28895U 05043F 15148.49217753 .00000437 00000-0 94247-4 0 9995 2 28895 097.8217 337.2941 0017125 004.2972 355.8374 14.62769965510711 FALCON 1 30776U 07006E 15148.41548791 .00006454 00000-0 26152-3 0 9992 2 30776 035.4267 125.0508 0001291 169.7704 325.8708 15.24059405453280 MAST 1 31126U 07012K 15148.49256803 .00000443 00000-0 10544-3 0 9997 2 31126 097.9588 117.4204 0091017 358.2880 116.9848 14.56043044430625 CAPE1 1 31130U 07012P 15148.86486836 .00000735 00000-0 16867-3 0 9992 2 31130 097.9806 114.9432 0097890 016.7839 343.6560 14.55472784430078 COMPASS 1 32787U 08021E 15148.13733874 .00001762 00000-0 18502-3 0 9998 2 32787 097.6532 196.4230 0014716 117.5906 242.6809 14.90637491383520 AAUSAT2 1 32788U 08021F 15148.07820607 .00002009 00000-0 20491-3 0 9998 2 32788 097.6542 197.8449 0014177 115.0073 245.2620 14.91669947383609 DO-64 1 32789U 08021G 15148.90380596 .00004658 00000-0 38209-3 0 9997 2 32789 097.6724 209.2627 0011230 100.4781 313.8097 14.99670922384197 CO-66 1 32791U 08021J 15148.12909516 .00001324 00000-0 14717-3 0 9998 2 32791 097.6526 194.3220 0015382 123.1858 237.0837 14.88710715383339 RS-30 1 32953U 08025A 15148.59727876 .00000010 00000-0 -13620-7 0 9998 2 32953 082.5063 346.4294 0019574 120.1986 240.1040 12.43060229318173 METEOR-M 1 35865U 09049A 15147.52207885 .00000099 00000-0 63633-4 0 9997 2 35865 098.5015 188.6043 0002571 149.6397 210.4932 14.22026925295270 RS-38 1 35869U 09049E 15148.96607439 .00000016 00000-0 26299-4 0 9995 2 35869 098.4923 189.6363 0004840 156.6524 203.4852 14.22295375295526 JUGNU 1 37839U 11058B 15147.81026703 .00000368 00000-0 54356-4 0 9994 2 37839 019.9623 326.0478 0018974 181.5989 296.4386 14.12467323187335 SRMSAT 1 37841U 11058D 15147.86518747 .00000347 00000-0 45744-4 0 9994 2 37841 019.9733 352.0009 0011903 109.2382 006.7224 14.10478757187073 RAX-2 1 37853U 11061D 15148.55571133 .00004567 00000-0 28475-3 0 9995 2 37853 101.7152 349.9487 0196452 133.2204 309.0783 14.95889138194179 AUBIESAT 1 37854U 11061E 15148.55298565 .00004894 00000-0 29286-3 0 9995 2 37854 101.7224 353.3418 0190288 128.3659 293.7200 14.98021957194288 HRBE 1 37855U 11061F 15148.13594380 .00004903 00000-0 29773-3 0 9996 2 37855 101.7215 351.3673 0195273 131.6977 230.1123 14.96857663194153 HORYU-2 1 38340U 12025D 15148.50125972 .00000833 00000-0 13407-3 0 9990 2 38340 098.3114 117.9252 0012526 152.6028 207.5842 14.74256942162633 RS-40 1 38735U 12041C 15148.70694883 .00000040 00000-0 21992-3 0 9998 2 38735 082.4786 072.1267 0015574 220.8466 139.1466 12.42567617128493 PROITERES 1 38756U 12047B 15149.01168351 .00000484 00000-0 78442-4 0 9993 2 38756 098.2186 247.9718 0012306 006.1858 353.9463 14.75804360146173 BEESAT-3 1 39134U 13015E 15148.70485907 .00003922 00000-0 22447-3 0 9997 2 39134 064.8719 119.8402 0031886 254.9954 104.8146 15.11968288115758 BEESAT-2 1 39136U 13015G 15148.73944021 .00003683 00000-0 22018-3 0 9997 2 39136 064.8725 121.9733 0032525 253.8247 105.9798 15.10377263115720 ZACUBE-1 1 39417U 13066B 15148.18133859 .00000875 00000-0 11997-3 0 9997 2 39417 097.7316 211.4482 0060155 200.3886 159.4924 14.79656230 81674 TRITON-1 1 39427U 13066M 15147.74199076 .00000564 00000-0 10060-3 0 9997 2 39427 097.7169 199.6948 0114770 231.9381 127.1426 14.66600662 80861 DELFIN3XT 1 39428U 13066N 15148.61671704 .00001044 00000-0 18161-3 0 9992 2 39428 097.7171 198.8604 0123340 233.9131 125.0602 14.65308551 80878 GOMX-1 1 39430U 13066Q 15148.72077359 .00000509 00000-0 10386-3 0 9999 2 39430 097.7092 193.2363 0152355 250.9705 107.4933 14.58019182 80544 MO-76 1 39436U 13066W 15147.73683399 .00014555 00000-0 99566-3 0 9995 2 39436 097.7463 223.7798 0024188 170.4461 189.7231 15.05980671 82415 LO-74 1 39440U 13066AA 15148.38674182 .00000758 00000-0 11567-3 0 9997 2 39440 097.7261 207.1498 0081515 210.8930 148.7471 14.74476431 81415 PUCPSAT-1 1 39442U 13066AC 15148.99526664 .00001563 00000-0 17245-3 0 9991 2 39442 097.7406 219.4562 0033255 183.9657 176.1301 14.88508374 81010 SPROUT 1 39770U 14029E 15147.88410909 .00000199 00000-0 30466-4 0 9991 2 39770 097.8688 244.9802 0008408 266.8785 093.1467 14.83772318 54626 POPSAT-HIP1 1 40028U 14033U 15149.00911083 .00000940 00000-0 11122-3 0 9990 2 40028 097.9562 049.3178 0012777 243.3229 116.6653 14.86958249 50936 EO-80 1 40032U 14033Y 15147.65469764 .00001368 00000-0 16022-3 0 9997 2 40032 097.9526 047.6576 0010800 244.6070 115.3880 14.86649335 50736 VELOX-1 1 40057U 14034E 15148.94629935 .00001221 00000-0 18603-3 0 9991 2 40057 098.2153 226.7324 0009975 304.0503 055.9707 14.75775676 49042 DAURIA DX 1 1 40071U 14037C 15148.93174053 .00000536 00000-0 77751-4 0 9993 2 40071 098.3571 219.5519 0007438 307.3939 052.6561 14.80366262 47942 UKUBE-1 1 40074U 14037F 15148.92370483 .00001189 00000-0 15667-3 0 9992 2 40074 098.3589 220.2633 0003756 321.4917 038.5967 14.82133296 47980 HODOYOSHI-1 1 40299U 14070B 15148.98441038 .00002238 00000-0 10940-3 0 9994 2 40299 097.4558 230.7389 0012923 193.0188 270.5134 15.19211820 30907 CHUBUSAT-1 1 40300U 14070C 15148.97884792 .00002512 00000-0 12805-3 0 9991 2 40300 097.4529 230.0794 0022020 197.0573 262.8439 15.17480235 30865 QSAT-EOS 1 40301U 14070D 15148.94853191 .00005116 00000-0 26088-3 0 9999 2 40301 097.4489 229.4340 0032185 198.9715 278.0040 15.16737804 30820 TSUBAME 1 40302U 14070E 15148.95956073 .00003170 00000-0 18055-3 0 9997 2 40302 097.4466 228.4532 0042841 202.4493 277.3966 15.12770217 30765 FIREBIRD FU3 1 40377U 15003B 15147.53285988 .00005728 00000-0 29005-3 0 9997 2 40377 099.1193 177.1824 0157646 321.5478 037.4588 15.07311789 17447 FIREBIRD FU4 1 40378U 15003C 15147.53099074 .00005674 00000-0 28695-3 0 9991 2 40378 099.1181 177.1855 0157879 321.4634 037.5382 15.07331264 17443 GRIFEX 1 40379U 15003D 15147.62508392 .00004596 00000-0 23737-3 0 9994 2 40379 099.1183 177.2363 0158820 322.2294 036.7854 15.06680197 17456 LAMBDA-SAT 1 40458U 98067GB 15136.30676273 .20783109 12527-4 14817-2 0 9995 2 40458 051.6075 233.7697 0010355 318.5347 043.1720 16.39926603 21161 /EX